Weather History for Liberia, Costa Rica

Change the Weather History Date:

Monday, February 11, 2013

  Actual Average Record
Temperature  
Mean Temperature 82 °F -  
Max Temperature 95 °F 91 °F 95 °F (1998)
Min Temperature 69 °F 74 °F 62 °F (2007)
Cooling Degree Days 17    
Growing Degree Days 32 (Base 50)    
Moisture  
Dew Point 58 °F    
Average Humidity 38    
Maximum Humidity 61    
Minimum Humidity 17    
Precipitation  
Precipitation 0.00 in - - ()
Sea Level Pressure  
Sea Level Pressure 29.86 in    
Wind  
Wind Speed 10 mph ()    
Max Wind Speed 22 mph    
Max Gust Speed 38 mph    
Visibility 9.1 miles    
Events      
Averages and records for this station are not official NWS values.
T = Trace of Precipitation, MM = Missing Value Source: Averaged Metar Reports

Daily Weather History Graph

Daily Weather History Graph

Search for Another Location

Airport:

Trip Planner

Search our weather history database for the weather conditions in past years. The results will help you decide how hot, cold, wet, or windy it might be!

Date:

Astronomy

Feb. 11, 2013 Rise Set
Actual Time 6:03 AM CST 5:49 PM CST
Civil Twilight 5:41 AM CST 6:11 PM CST
Nautical Twilight 5:16 AM CST 6:36 PM CST
Astronomical Twilight 4:51 AM CST 7:00 PM CST
Moon 6:53 AM CST (2/11) 7:13 PM CST (2/11)
Length of Visible Light 12h 29m
Length of Day
11h 45m
Waxing Crescent, 3% of the Moon is Illuminated
Feb 11
Waxing Crescent
Feb 17
First Quarter
Feb 25
Full
Mar 4
Last Quarter
Mar 11
New

Hourly Weather History & Observations

Time (CST) Temp. Heat Index Dew Point Humidity Pressure Visibility Wind Dir Wind Speed Gust Speed Precip Events Conditions
6:00 AM 73 °F - 59 °F 51% 29.92 in 12 mi South 2.3 mph - -  
6:00 AM 73.4 °F - 59.0 °F 61% 29.90 in - South 2.3 mph - N/A   Clear
7:00 AM 75.2 °F - 59.0 °F 57% 29.92 in - NE 4.6 mph - N/A   Clear
8:00 AM 82.4 °F 82.5 °F 59.0 °F 45% 29.93 in - East 5.8 mph - N/A   Clear
9:00 AM 86 °F - 58 °F 29% 29.95 in 12 mi ENE 6.9 mph - -  
9:00 AM 86.0 °F 85.4 °F 59.0 °F 40% 29.93 in - ENE 6.9 mph - N/A   Clear
10:00 AM 89.6 °F 87.7 °F 55.4 °F 31% 29.92 in - East 15.0 mph - N/A   Clear
11:00 AM 91.4 °F 89.1 °F 53.6 °F 28% 29.90 in - ENE 16.1 mph - N/A   Clear
12:00 PM 93 °F - 54 °F 17% 29.88 in 12 mi ENE 18.4 mph - -  
12:00 PM 93.2 °F 90.8 °F 53.6 °F 26% 29.87 in - ENE 18.4 mph - N/A   Clear
1:00 PM 93.2 °F 91.3 °F 55.4 °F 28% 29.83 in - ENE 21.9 mph 38.0 mph N/A   Clear
2:00 PM 93.2 °F 91.3 °F 55.4 °F 28% 29.81 in - ENE 17.3 mph - N/A   Clear
3:00 PM 93 °F - 57 °F 21% 29.81 in 12 mi ENE 21.9 mph - -   Scattered Clouds
3:00 PM 93.2 °F 91.9 °F 57.2 °F 30% 29.79 in 6.2 mi ENE 21.9 mph - N/A   Partly Cloudy
4:00 PM 91.4 °F 90.7 °F 59.0 °F 34% 29.78 in 6.2 mi NE 20.7 mph - N/A   Partly Cloudy
5:00 PM 89.6 °F 89.5 °F 60.8 °F 38% 29.79 in 6.2 mi NE 20.7 mph - N/A   Scattered Clouds
6:00 PM 85 °F - 63 °F 38% 29.83 in 12 mi NE 18.4 mph - -   Scattered Clouds
6:00 PM 84.2 °F 85.0 °F 62.6 °F 48% 29.81 in 6.2 mi NE 18.4 mph - N/A   Scattered Clouds
7:00 PM 80.6 °F 82.3 °F 64.4 °F 58% 29.84 in 6.2 mi ENE 18.4 mph - N/A   Mostly Cloudy
8:00 PM 80.6 °F 81.8 °F 62.6 °F 54% 29.86 in - ENE 13.8 mph - N/A   Clear